Kaiser, MO

1:19 PM CDT on March 28, 2017 (GMT -0500)
Fine Memorial

Weather History for KAIZ - March, 2014

Change the Weather History Date:

Monday, March 10, 2014

  Actual Average Record
Temperature  
Mean Temperature 60 °F -  
Max Temperature 75 °F 51 °F 75 °F (2014)
Min Temperature 44 °F 31 °F 15 °F (2003)
Degree Days  
Heating Degree Days 6    
Growing Degree Days 10 (Base 50)    
Moisture  
Dew Point 32 °F    
Average Humidity 43    
Maximum Humidity 76    
Minimum Humidity 17    
Precipitation  
Precipitation 0.00 in - - ()
Sea Level Pressure  
Sea Level Pressure 29.88 in    
Wind  
Wind Speed 11 mph (SW)    
Max Wind Speed 21 mph    
Max Gust Speed 28 mph    
Visibility 10 miles    
Events      
Averages and records for this station are not official NWS values.
T = Trace of Precipitation, MM = Missing Value Source: NWS Daily Summary

Daily Weather History Graph

Daily Weather History Graph

Search for Another Location

Airport or City:

Trip Planner

Search our weather history database for the weather conditions in past years. The results will help you decide how hot, cold, wet, or windy it might be!

Date:

Astronomy

Mar. 10, 2014 Rise Set
Actual Time 7:28 AM CDT 7:12 PM CDT
Civil Twilight 7:02 AM CDT 7:38 PM CDT
Nautical Twilight 6:32 AM CDT 8:09 PM CDT
Astronomical Twilight 6:01 AM CDT 8:40 PM CDT
Moon 2:00 PM CDT (3/10) 3:37 AM CDT (3/10)
Length of Visible Light 12h 36m
Length of Day
11h 43m
Waxing Gibbous, 70% of the Moon is Illuminated
Mar 10
Waxing Gibbous
Mar 16
Full
Mar 23
Last Quarter
Mar 30
New
Apr 7
First Quarter

Hourly Weather History & Observations

Time (CDT) Temp. Windchill Dew Point Humidity Pressure Visibility Wind Dir Wind Speed Gust Speed Precip Events Conditions
12:15 AM 48.2 °F - 33.8 °F 58% 30.04 in 10.0 mi WSW 10.4 mph - N/A   Clear
12:35 AM 46.4 °F 41.5 °F 35.6 °F 66% 30.03 in 10.0 mi SW 10.4 mph - N/A   Clear
12:55 AM 46.4 °F 41.5 °F 35.6 °F 66% 30.03 in 10.0 mi SW 10.4 mph - N/A   Clear
1:15 AM 46.4 °F 41.1 °F 35.6 °F 66% 30.02 in 10.0 mi SW 11.5 mph - N/A   Clear
1:35 AM 46.4 °F 41.5 °F 35.6 °F 66% 30.02 in 10.0 mi SW 10.4 mph - N/A   Clear
1:55 AM 46.4 °F 42.4 °F 37.4 °F 71% 30.03 in 10.0 mi SW 8.1 mph - N/A   Clear
2:15 AM 46.4 °F 42.4 °F 37.4 °F 71% 30.02 in 8.0 mi SW 8.1 mph - N/A   Clear
2:35 AM 46.4 °F 41.9 °F 37.4 °F 71% 30.01 in 8.0 mi SW 9.2 mph - N/A   Clear
2:55 AM 46.4 °F 41.5 °F 37.4 °F 71% 30.01 in 8.0 mi SW 10.4 mph 16.1 mph N/A   Clear
3:15 AM 46.4 °F 42.4 °F 37.4 °F 71% 30.01 in 8.0 mi SW 8.1 mph - N/A   Clear
3:35 AM 44.6 °F 39.7 °F 37.4 °F 76% 30.00 in 8.0 mi SW 9.2 mph - N/A   Clear
3:55 AM 44.6 °F 40.2 °F 37.4 °F 76% 30.00 in 8.0 mi WSW 8.1 mph - N/A   Clear
4:15 AM 44.6 °F 39.7 °F 37.4 °F 76% 29.98 in 8.0 mi SW 9.2 mph - N/A   Clear
4:35 AM 44.6 °F 40.2 °F 37.4 °F 76% 29.98 in 8.0 mi SW 8.1 mph - N/A   Clear
4:55 AM 44.6 °F 39.7 °F 37.4 °F 76% 29.97 in 8.0 mi SW 9.2 mph - N/A   Clear
5:15 AM 44.6 °F 39.7 °F 37.4 °F 76% 29.97 in 9.0 mi SW 9.2 mph - N/A   Clear
5:35 AM 44.6 °F 39.7 °F 35.6 °F 71% 29.97 in 10.0 mi WSW 9.2 mph - N/A   Clear
5:55 AM 44.6 °F 39.2 °F 35.6 °F 71% 29.96 in 10.0 mi SW 10.4 mph - N/A   Clear
6:15 AM 44.6 °F 40.2 °F 35.6 °F 71% 29.96 in 10.0 mi SW 8.1 mph - N/A   Clear
6:35 AM 44.6 °F 38.8 °F 35.6 °F 71% 29.96 in 10.0 mi SW 11.5 mph - N/A   Clear
6:55 AM 44.6 °F 38.1 °F 35.6 °F 71% 29.95 in 10.0 mi SW 13.8 mph 18.4 mph N/A   Clear
7:15 AM 44.6 °F 39.7 °F 35.6 °F 71% 29.95 in 10.0 mi WSW 9.2 mph - N/A   Clear
7:35 AM 46.4 °F 41.9 °F 35.6 °F 66% 29.95 in 10.0 mi SW 9.2 mph - N/A   Clear
7:55 AM 46.4 °F 41.5 °F 33.8 °F 62% 29.95 in 10.0 mi SW 10.4 mph - N/A   Clear
8:15 AM 46.4 °F 41.1 °F 33.8 °F 62% 29.95 in 10.0 mi SW 11.5 mph - N/A   Clear
8:35 AM 48.2 °F - 33.8 °F 58% 29.94 in 10.0 mi WSW 16.1 mph 24.2 mph N/A   Clear
8:55 AM 50.0 °F - 33.8 °F 54% 29.94 in 10.0 mi WSW 13.8 mph - N/A   Clear
9:15 AM 51.8 °F - 33.8 °F 50% 29.94 in 10.0 mi WSW 12.7 mph 21.9 mph N/A   Clear
9:35 AM 51.8 °F - 33.8 °F 50% 29.94 in 10.0 mi SW 12.7 mph - N/A   Clear
9:55 AM 53.6 °F - 32.0 °F 44% 29.93 in 10.0 mi SW 17.3 mph 23.0 mph N/A   Clear
10:15 AM 55.4 °F - 32.0 °F 41% 29.93 in 10.0 mi WSW 12.7 mph 23.0 mph N/A   Clear
10:35 AM 57.2 °F - 32.0 °F 38% 29.92 in 10.0 mi WSW 15.0 mph 21.9 mph N/A   Clear
10:55 AM 57.2 °F - 32.0 °F 38% 29.92 in 10.0 mi WSW 15.0 mph 20.7 mph N/A   Clear
11:15 AM 60.8 °F - 33.8 °F 36% 29.92 in 10.0 mi SW 15.0 mph 20.7 mph N/A   Clear
11:35 AM 62.6 °F - 33.8 °F 34% 29.90 in 10.0 mi SW 13.8 mph 18.4 mph N/A   Clear
11:55 AM 64.4 °F - 32.0 °F 30% 29.89 in 10.0 mi SW 15.0 mph 20.7 mph N/A   Clear
12:15 PM 64.4 °F - 32.0 °F 30% 29.88 in 10.0 mi WSW 13.8 mph 20.7 mph N/A   Clear
12:35 PM 66.2 °F - 30.2 °F 26% 29.87 in 10.0 mi WSW 12.7 mph 25.3 mph N/A   Clear
12:55 PM 69.8 °F - 30.2 °F 23% 29.86 in 10.0 mi SW 16.1 mph 23.0 mph N/A   Clear
1:15 PM 69.8 °F - 30.2 °F 23% 29.85 in 10.0 mi SW 17.3 mph 24.2 mph N/A   Clear
1:35 PM 71.6 °F - 30.2 °F 22% 29.83 in 10.0 mi SW 20.7 mph 26.5 mph N/A   Clear
1:55 PM 71.6 °F - 30.2 °F 22% 29.82 in 10.0 mi WSW 16.1 mph 27.6 mph N/A   Clear
2:15 PM 71.6 °F - 28.4 °F 20% 29.81 in 10.0 mi WSW 16.1 mph 26.5 mph N/A   Clear
2:35 PM 73.4 °F - 28.4 °F 19% 29.80 in 10.0 mi WSW 17.3 mph 26.5 mph N/A   Clear
2:55 PM 73.4 °F - 28.4 °F 19% 29.79 in 10.0 mi WSW 17.3 mph 23.0 mph N/A   Clear
3:15 PM 73.4 °F - 28.4 °F 19% 29.79 in 10.0 mi SW 16.1 mph 25.3 mph N/A   Clear
3:35 PM 75.2 °F - 30.2 °F 19% 29.78 in 10.0 mi SW 12.7 mph 17.3 mph N/A   Clear
3:55 PM 75.2 °F - 28.4 °F 18% 29.77 in 10.0 mi WSW 16.1 mph 24.2 mph N/A   Clear
4:15 PM 75.2 °F - 28.4 °F 18% 29.77 in 10.0 mi SW 17.3 mph 25.3 mph N/A   Clear
4:35 PM 75.2 °F - 26.6 °F 17% 29.76 in 10.0 mi WSW 15.0 mph 24.2 mph N/A   Clear
4:55 PM 75.2 °F - 26.6 °F 17% 29.75 in 10.0 mi WSW 15.0 mph 23.0 mph N/A   Clear
5:15 PM 75.2 °F - 26.6 °F 17% 29.75 in 10.0 mi WSW 18.4 mph 25.3 mph N/A   Clear
5:35 PM 75.2 °F - 26.6 °F 17% 29.75 in 10.0 mi SW 13.8 mph 18.4 mph N/A   Clear
5:55 PM 75.2 °F - 26.6 °F 17% 29.75 in 10.0 mi SW 10.4 mph 17.3 mph N/A   Clear
6:15 PM 73.4 °F - 26.6 °F 18% 29.75 in 10.0 mi SW 10.4 mph 18.4 mph N/A   Clear
6:35 PM 73.4 °F - 26.6 °F 18% 29.75 in 10.0 mi SW 11.5 mph 17.3 mph N/A   Clear
6:55 PM 71.6 °F - 24.8 °F 17% 29.75 in 10.0 mi SW 9.2 mph - N/A   Clear
7:15 PM 71.6 °F - 24.8 °F 17% 29.76 in 10.0 mi SW 10.4 mph - N/A   Clear
7:35 PM 69.8 °F - 26.6 °F 20% 29.76 in 10.0 mi SW 9.2 mph - N/A   Clear
7:55 PM 68.0 °F - 26.6 °F 21% 29.76 in 10.0 mi SW 10.4 mph - N/A   Clear
8:15 PM 66.2 °F - 28.4 °F 24% 29.77 in 10.0 mi WSW 6.9 mph - N/A   Clear
8:35 PM 66.2 °F - 28.4 °F 24% 29.77 in 10.0 mi WSW 4.6 mph - N/A   Clear
8:55 PM 66.2 °F - 28.4 °F 24% 29.77 in 10.0 mi SW 4.6 mph - N/A   Clear
9:15 PM 62.6 °F - 30.2 °F 30% 29.77 in 10.0 mi SSW 6.9 mph - N/A   Clear
9:35 PM 60.8 °F - 28.4 °F 29% 29.77 in 10.0 mi SSW 8.1 mph - N/A   Clear
9:55 PM 60.8 °F - 30.2 °F 31% 29.78 in 10.0 mi SSW 8.1 mph - N/A   Clear
10:15 PM 59.0 °F - 28.4 °F 31% 29.77 in 10.0 mi South 5.8 mph - N/A   Clear
10:35 PM 57.2 °F - 28.4 °F 33% 29.77 in 10.0 mi South 5.8 mph - N/A   Clear
10:55 PM 55.4 °F - 28.4 °F 36% 29.77 in 10.0 mi SSE 5.8 mph - N/A   Clear
11:15 PM 51.8 °F - 28.4 °F 41% 29.76 in 10.0 mi SSE 4.6 mph - N/A   Clear
11:35 PM 51.8 °F - 28.4 °F 41% 29.76 in 10.0 mi South 4.6 mph - N/A   Clear
11:55 PM 51.8 °F - 28.4 °F 41% 29.75 in 10.0 mi SSE 5.8 mph - N/A   Clear